GFSNGP_prec_radar_204.txt.gz
Reflectivity
-14 -20 -20 -20 -10 13 4 1 10 -11 -19 -20 -9 14 14 -18 15 27 15 20 12 4 -20 -17 -20 -5 27 20 37 35 30 32 24 21 16 2 14 6 12 19 25 22 10 5
15 -11 -20 -20 6 -20 -20 -20 -2 -20 -20 -20 -9 12 12 7 0 17 17 11 19 19 -11 0 -12 -20 2 5 36 41 37 15 34 36 28 -3 7 24 25 21 20 22 21 7
7 -8 8 8 -20 -20 -20 -20 -20 -20 -20 -20 -20 -20 -1 -10 4 1 4 7 -14 -2 10 -13 -0 -20 -20 -20 -16 22 11 25 39 39 28 8 14 14 13 4 -3 -2 -6 -4
-7 -9 15 -20 -20 -20 -20 -20 -20 -20 -20 -20 -20 -20 -9 0 -12 5 3 -14 -20 -20 -18 15 -6 -14 -13 -20 -12 -6 -13 28 40 31 36 29 12 -6 -18 -20 -20 -20 -7 10
15 -0 -13 -20 -20 -20 -20 -20 -20 -20 -20 -20 -20 -20 -20 -12 -20 -20 -17 -7 0 10 -20 20 7 -0 -20 -3 -20 -18 -20 -19 15 28 36 29 21 22 15 19 13 1 -7 -4
2 13 -12 -20 -20 -20 -20 -20 -18 -20 -20 -20 -20 -20 -20 -20 -20 -20 -20 -19 -7 11 24 -12 -6 -5 15 -4 -14 -20 -17 -20 -20 -19 -4 20 28 23 21 18 8 12 13 4
8 9 -15 -20 -20 -20 -20 -20 -20 -19 -20 -20 -20 -20 -20 -20 -20 -20 -20 -20 -20 19 18 -7 14 12 23 15 14 -12 -20 -20 -20 -20 -17 -10 5 20 21 13 5 3 1 -6
-20 -20 -6 -20 -20 -20 -20 -20 -20 -20 -20 -20 -20 -20 -20 -20 -20 -20 -20 -20 -11 29 8 -4 -3 8 6 15 13 5 -20 -20 -16 -4 -15 -20 -4 -1 5 2 -14 -20 -20 -20
-8 -1 -19 -20 -20 -20 -20 -20 -20 -20 -20 -20 -20 -20 -20 -12 5 -20 -2 10 -14 6 38 28 26 21 6 -16 1 -12 -17 4 8 11 9 -3 -19 -19 -20 -20 -20 -19 -20 -19
-20 -20 -20 -20 -20 -20 -20 -20 -20 -20 -20 -20 -20 -20 -17 11 39 -1 11 -1 1 28 37 32 13 16 24 -9 17 18 9 11 16 3 -12 -20 -20 -20 -20 -20 -16 -3 1 -6
-20 -20 -20 -20 -20 -20 -20 -20 -20 -20 -20 -20 -20 -20 12 37 41 39 34 28 38 35 30 26 13 -11 1 -17 6 4 -10 -3 -10 -20 -18 -20 -20 -20 -19 -8 -5 -5 -20 -20
-20 -20 -20 -20 -20 -20 -20 -20 -20 -20 -20 -20 -20 10 27 15 33 35 30 22 22 20 21 25 9 -13 -16 -20 -20 -20 -11 -5 -6 -20 -20 -20 -20 -14 14 10 6 -0 -14 -0
-20 -20 -20 -20 -20 -20 -20 -20 -20 -20 -20 -20 -20 23 37 27 37 32 40 9 2 -17 -20 -19 -7 6 7 8 -9 -20 -20 -20 -20 -20 -20 -20 -20 -20 -20 4 9 -19 -4 -0
-20 -20 -20 -20 -20 -20 -20 -20 -20 -20 -20 -20 -11 31 42 34 28 35 11 -14 -20 -20 -20 -20 -20 -20 -20 -20 -20 -20 -20 -20 -20 -20 -20 -20 -20 -20 -20 -20 -20 -20 -19 -10
-20 -20 -16 -20 -20 -20 -20 -20 -20 -20 -20 -20 -0 30 38 39 22 -13 23 18 -20 -20 -20 -20 -20 -20 -20 -20 -20 -20 -20 -20 -20 -20 -20 -20 -20 -20 -20 -20 -20 -20 -20 -10
-20 -14 -20 -20 -18 2 -20 -20 -20 -20 -20 -20 -8 18 37 37 35 20 -19 -20 -20 -20 -20 -20 -20 -20 -20 -20 -20 -20 -20 -19 -0 -20 -20 -20 -20 -20 -20 -20 -20 -20 -20 -20
-20 -19 -6 -19 -17 -9 -19 -20 -20 -20 -20 -20 -19 10 17 21 22 24 0 -20 -20 -20 -20 -20 -20 -20 -20 -20 -20 -20 -19 -14 17 -18 -20 -20 -20 -20 -20 -20 -20 -20 -20 -20
-3 6 -3 -20 -20 -10 -20 -20 -20 -20 -20 -20 -19 8 15 38 -10 -15 -5 -20 -20 -20 -20 -20 -20 -20 1 1 -2 7 12 12 -20 -9 -20 -20 -20 -20 -20 -20 -20 -20 -20 -20
-20 -10 3 -8 -15 -20 -20 -20 -20 -20 -20 -20 -13 8 20 18 3 3 -20 -20 -20 -20 -20 -20 -18 -12 -20 9 14 11 13 10 6 -13 -20 -20 -20 -20 -20 -20 -20 -20 -20 -20
-12 -20 2 -9 -20 -19 -16 -20 -20 -20 -20 -20 16 2 12 27 4 -20 -20 -6 -17 -20 -20 -20 -20 -20 -20 -12 9 -3 -15 -9 6 -20 -20 -20 -20 -20 -20 0 -20 -20 -20 -20
-18 -20 -10 -20 -20 -20 -20 -20 -20 -20 -20 -20 -20 -13 4 9 4 -5 -20 -17 -20 -20 -20 -20 -20 -20 -20 -9 -20 -20 -20 -20 -20 -20 -20 -20 -20 -17 -20 -20 -20 -20 -20 -20
-20 -20 -20 -20 -20 -20 -20 -20 -20 -20 -20 -20 -20 -14 16 7 12 2 -19 -20 -20 -11 -20 -20 -20 -20 -14 -20 -20 -20 -20 -20 -20 -20 -20 -11 -9 -8 -9 -9 -7 -14 -16 -16
-20 -12 -19 -13 -20 -20 -20 -20 -20 -20 -19 -5 4 -1 8 17 15 13 -15 -19 -20 -20 -20 -20 5 8 7 -1 -3 -20 -20 -1 -20 -20 -20 -20 -16 -15 -6 -15 -3 5 -5 -0
-20 -20 -20 -9 -11 -20 -20 -20 2 -5 -9 -17 -16 6 1 -2 15 1 -20 -20 -20 -20 -20 -20 -0 9 10 -20 -20 -20 -20 -20 -20 -20 -13 8 -20 -20 -18 -8 1 9 7 12
-20 -20 -15 -20 -20 -18 -20 -19 -20 -18 -9 -19 -9 5 4 -3 -16 -19 -20 -20 -20 -20 -19 -17 2 10 -15 -20 -20 -20 -20 -18 -20 -9 -3 -16 -20 -20 -13 0 6 -0 -0 1
-20 -20 -20 -20 -20 -20 -20 -18 -20 -20 -20 -20 -20 -20 -20 -20 -19 -18 -12 -7 -20 0 -18 -19 -19 -16 -20 -20 -20 -20 -20 -20 -18 -20 -13 -18 -20 -20 -20 -16 -7 -7 -12 -0
-20 -4 -20 -20 -20 -20 -18 -16 -20 -20 -13 -15 -20 -20 -20 -20 -16 -8 1 -12 3 1 -20 -20 -18 -19 -20 -20 -20 -20 -20 -20 -17 -20 -20 -20 -20 -20 -20 -20 -18 -20 -20 -20

GFSNGP_prec_radar_210.txt.gz
Reflectivity
-3 4 4 -20 -15 17 15 15 17 -20 -20 -19 -20 -20 -20 -20 -20 -20 -13 -12 -20 -20 -20 -20 -20 -20 -20 -20 -20 -20 -20 -20 -7 -19 -5 -0 18 7 8 31 10 18 28 24
-20 -20 -4 5 -20 -20 -6 7 -17 -15 -7 -10 -20 -20 -20 -20 -20 -20 -20 -20 -14 -20 -20 -20 -20 -20 -20 3 -20 -17 -20 -9 14 26 15 14 27 21 25 13 18 21 37 25
-20 -20 -20 -20 -20 -20 -20 -20 -20 -20 -20 -20 -20 -18 -13 -17 -20 -20 -20 -20 -20 -20 -20 -20 -20 -20 -8 3 -20 5 -20 -12 11 -4 -19 -16 21 26 22 25 24 37 46 31
-5 -7 -17 -20 -20 -20 -20 -20 -20 -20 -20 -20 -20 -20 -20 -20 -20 -20 -20 -20 -20 -20 -20 -20 -20 -20 -7 -18 -18 4 -12 -20 -20 -20 -20 -16 -20 -15 -13 18 36 35 37 42
-20 2 -11 -20 -20 -20 -20 -20 -20 -20 -20 -20 -20 -20 -20 -20 -20 -20 -20 -20 -20 -20 -20 -20 -20 -20 5 6 1 23 -18 -17 -7 -20 -13 14 5 -12 3 27 34 43 31 36
-20 5 -9 -20 -20 -20 -20 -20 -20 -20 -20 -20 -20 -20 -20 -20 -20 -20 -20 -20 -20 -20 -20 -20 -20 -20 7 3 1 14 12 -20 -20 -10 10 -10 -11 8 25 32 26 24 22 29
-20 -7 -20 -20 -20 -20 -20 -20 -20 -20 -20 -20 -20 -20 -20 -20 -20 -20 -20 -20 -20 -20 2 -20 -20 -20 20 -1 10 19 20 8 -20 -14 10 8 5 15 16 18 18 26 30 36
-14 -1 -20 -20 -20 -20 -20 -20 -20 -20 -20 -20 -20 -20 -20 -20 -20 -20 -20 -20 -20 -20 -20 -20 -20 -20 18 -1 35 10 22 36 -12 1 11 -4 4 10 9 11 21 11 10 8
-20 -20 -20 -20 -20 -20 -20 -20 -20 -20 -20 -20 -20 -20 -20 -20 -20 -20 -20 -20 -20 -20 -20 -20 -20 -20 13 -19 27 15 31 -3 -17 -20 -4 8 11 19 6 -20 -11 -5 -1 10
-20 -20 -20 -20 -20 -20 -20 -20 -20 -20 -20 -20 -20 -20 -20 -20 -20 -20 -20 -20 -20 -20 -20 -20 -19 8 -20 -13 25 28 27 11 -20 -20 -16 -20 -20 -20 -20 -20 -20 -20 -20 -15
-20 -20 -20 -20 -20 -20 -20 -20 -20 -20 -20 -20 -20 -20 -20 -20 -20 -20 -20 -20 14 10 16 28 -18 19 8 13 24 20 -2 -11 -4 -20 -18 -20 -9 -15 -6 -15 -17 -20 -20 -20
-20 -20 -20 -20 -20 -20 -20 -20 -20 -20 -20 -20 -20 -20 -20 -20 -20 -20 -13 23 25 36 32 22 -4 9 13 34 33 5 9 -20 -17 -11 -13 -7 -19 -7 13 -13 -20 -20 -20 -20
-20 -20 -20 -20 -20 -20 -20 -20 -20 -20 -20 -20 -20 -20 -20 -20 -20 -11 20 36 38 38 26 26 15 28 33 36 34 25 15 11 -5 -20 5 -3 -14 -20 -12 1 3 1 0 -4
-20 -20 -20 -20 -12 -10 -16 -19 -20 -20 -20 -20 -20 -20 -20 -20 -17 7 32 37 39 42 41 39 37 25 28 25 19 21 14 17 9 5 -13 -20 -15 -5 -7 -11 -18 -20 -20 -20
-20 -20 -20 -20 3 -7 -20 -20 -20 -20 -20 -20 -20 -20 -20 -20 -9 28 38 39 37 34 37 36 22 26 12 -2 9 8 12 8 -14 -16 -20 -16 -20 -20 -20 -20 -20 -20 -20 -20
-20 -20 -20 -20 -20 -20 -19 -18 -20 -20 -20 -12 -20 -20 -20 23 29 37 38 24 2 5 5 17 14 11 10 -8 -17 -6 10 -19 -20 -20 -20 -20 -20 -20 -20 -20 -20 -20 -20 -20
-20 -20 -20 -20 -20 -12 -3 2 1 -1 -18 -20 -13 -20 10 31 24 26 23 -16 -11 -11 -20 -2 -2 -20 -20 -20 -20 -20 -20 -20 -20 -20 -20 -20 -20 -20 -20 -20 -20 -20 -20 -20
-20 -20 -19 -11 -20 -20 -20 -19 4 -6 -15 -6 1 -17 -4 17 27 20 9 -20 -20 -20 -20 -20 -20 -20 -20 -20 -20 -20 -20 -20 -20 -20 -20 -20 -20 -20 -20 -20 -20 -20 -20 -20
-20 -10 -19 -7 -20 -20 -12 -20 -20 -5 -11 1 1 2 17 15 18 19 16 0 -16 -20 -5 7 13 -1 -20 -8 -16 -20 -20 -20 -20 -20 -20 -3 -17 -20 -20 -20 -20 -20 -20 -20
-20 -15 -0 3 -10 -20 -20 -20 -19 -6 -11 -20 -15 8 25 12 24 3 -7 -7 -20 -20 -19 -8 -7 2 -5 -1 8 -12 -20 -20 -20 -20 -20 -20 -20 -20 -20 1 -18 -20 -20 -20
-20 -19 -20 -12 -8 -20 -20 -20 -20 -20 -18 -20 -20 -20 -18 -7 16 10 -18 -20 -20 -20 -17 7 -12 -7 -9 1 2 6 -14 -20 -20 -20 -20 -20 -15 -17 -20 -20 -11 -20 -20 -15
-20 -13 -20 -19 -20 -20 -20 -20 -20 -20 -20 -20 -20 -20 -20 -20 -3 -1 -5 -20 -20 9 -1 -20 -20 -2 -9 8 -20 -20 -20 -20 -20 -20 -20 -18 -20 -20 -19 -13 -17 -20 -16 -20
-20 -20 -20 -20 -5 -20 -20 -20 -20 -20 -20 -20 -20 -20 -20 -20 -6 8 -18 -20 -20 -2 -19 -20 5 8 -3 -16 -20 -20 -17 -1 -13 -3 -15 -17 -20 -20 -20 -18 -20 -20 -16 -5
-20 -20 -20 -20 -20 -20 -20 -20 -20 -20 -20 -20 -20 -20 -20 7 2 10 11 4 3 -20 -20 -7 -7 8 11 -20 -20 -20 -20 -20 -20 -20 -20 -4 -20 -20 -20 -20 -20 -20 -19 -4
-20 -20 -20 -20 -20 -20 -20 -20 -20 -20 -20 -20 -20 -20 -20 5 10 9 13 17 12 -5 -20 -18 7 7 -15 -20 -20 -20 -20 -20 -20 -20 -20 -20 -20 -20 -20 -20 -20 -20 -20 -19
-20 -20 -20 -20 -20 -20 -20 -20 -20 -20 -20 -20 -20 -20 -20 -20 4 8 4 -10 1 2 4 -20 -20 -18 -20 -20 -20 -20 -20 -20 -20 -20 -20 -20 -20 -20 -20 -20 -20 -20 -20 -20
-20 -20 -20 -20 -20 -20 -15 -20 -20 -20 -20 -20 -20 -20 -19 -20 -20 -13 4 2 -11 -17 -11 -16 -20 -20 -20 -20 -20 -20 -20 -20 -20 -20 -20 -20 -20 -20 -20 -20 -20 -20 -20 -20

GFSNGP_prec_radar_216.txt.gz
Reflectivity
-12 -20 -20 -20 -20 -14 11 12 11 1 -3 -20 8 9 4 12 13 7 7 9 8 4 13 12 3 5 -13 -20 -20 -13 -10 -2 -7 -20 -20 -20 -20 -1 -17 12 29 16 -13 4
-19 -20 -20 -20 -20 -20 -20 5 -6 -20 -20 -20 4 6 -19 0 9 11 9 10 -3 -11 5 -7 -14 -20 -3 -3 -20 -8 -13 -20 -20 -20 -20 -20 -18 -20 -20 -20 -20 13 23 16
-20 -18 -20 -20 -20 -20 -20 -20 -20 -20 -20 -20 -14 -18 -20 -17 -2 -16 -14 3 3 3 3 -11 -17 -10 -5 -4 4 7 -20 -19 2 -20 -20 -20 -20 -20 -20 -20 -20 -5 6 -4
2 -4 -3 -20 -20 -20 -20 -20 -20 -20 -20 -20 -20 -20 -20 -20 -20 -20 -20 -14 -5 4 2 -16 -9 1 -13 -19 -6 1 -12 -20 -20 -20 -20 -20 -20 -20 -20 -20 -20 -20 -10 -4
13 6 -20 -20 -20 -20 -20 -20 -20 -20 -20 -20 -20 -20 -20 -20 -20 -20 -20 -20 -20 -20 -20 -20 -16 -5 -5 -16 -13 -18 -20 -16 -20 -20 -20 -20 -20 -20 -20 -20 -20 -20 -20 -14
16 12 8 0 -20 -20 -20 -20 -20 -20 -20 -20 -20 -20 -5 -20 -20 -20 -20 -20 -20 -20 -20 -20 -20 -20 -16 -15 -20 -3 -5 -15 -20 -20 -20 -20 -20 -20 -20 -20 -20 -20 -20 -19
14 18 12 -20 -20 -20 -17 1 -20 -20 -20 -20 -20 -20 -20 -20 -20 -20 -20 -20 -20 -20 -20 -20 -20 -20 -20 -20 -20 -20 -20 -18 -20 -20 -20 -19 -20 -20 -20 -20 -20 -20 -10 -1
20 21 18 -20 -20 -11 -11 -20 -20 -20 -20 -20 -20 -20 -20 -20 -20 -20 -20 -20 -20 -20 -20 -20 -20 -20 -20 -20 -20 -20 -20 -20 -20 -20 10 12 -20 -20 -20 -20 -20 -18 -2 -0
16 18 -20 -20 -16 -20 -20 -20 -20 -20 -20 -20 -20 -20 -20 -20 -20 -20 -20 -20 -20 -20 -20 -20 -20 -20 -20 -20 -20 -20 -4 -20 -16 4 5 11 3 -20 -11 -4 -5 -8 -9 -13
-20 -20 -20 -20 -20 -20 -20 -20 -20 -20 -20 -16 -16 -20 -20 -20 -20 -20 -20 -20 -20 -20 -20 -20 -20 -20 -20 -20 -20 -15 -20 -19 13 26 13 23 9 0 8 -9 -14 -20 -20 -20
13 -20 -20 -20 -20 -20 -20 -20 -20 -20 -20 -20 -11 2 -16 -20 -20 -20 -20 -20 -20 -20 -20 -20 -20 -20 -20 -20 -20 -20 -20 3 15 21 34 24 34 27 19 2 6 -12 -20 -20
13 -13 -20 -20 -20 -20 -20 -20 -20 -20 -20 -20 -20 -20 -20 -19 -7 -20 -5 -20 -8 -20 -7 -20 -20 -20 -20 -12 -17 -5 -19 18 31 16 23 36 32 34 33 33 32 29 28 26
-20 -20 -20 -20 -20 -20 -20 -20 -8 -3 -14 -20 -20 -20 -20 4 -19 -1 2 2 2 -10 -8 3 6 19 35 21 14 -18 4 27 12 35 38 32 36 33 29 25 20 13 18 18
-20 -20 -20 -20 -20 -20 -20 -16 -10 -20 -20 -20 -20 -20 -20 4 3 -20 5 7 17 20 21 31 22 13 31 25 15 -6 21 32 35 36 18 -17 -7 6 -3 -6 11 -2 7 3
-20 -20 -20 -20 -20 -20 -20 -20 -20 -20 -20 -20 -20 -20 -20 -6 2 20 29 29 28 28 25 29 4 10 31 18 22 22 35 36 35 9 -20 -20 -20 -12 -12 -0 -4 -17 -6 -4
-20 -20 -20 -20 -20 -20 -18 -8 -5 -20 -20 -20 -20 -20 -17 3 28 30 31 29 22 19 20 12 15 21 34 31 40 38 39 34 28 10 18 12 -20 -19 -11 -6 -1 -0 -2 -3
-20 -20 -20 -20 -20 -20 -20 -20 -20 5 -5 -3 -9 -13 10 19 31 27 30 24 33 30 29 29 27 38 38 37 31 38 26 14 9 14 -3 -7 -20 -4 -5 -6 0 4 4 -9
-20 -20 -10 -12 -8 -6 -7 -16 0 -1 -4 -3 -14 -0 14 13 7 12 27 28 15 27 26 33 29 26 31 35 31 25 19 16 9 -10 -19 -20 -20 -20 -20 -15 -12 -4 -1 -20
-20 -20 -20 -20 -19 -1 -20 -15 -20 -5 -8 -13 -3 1 1 8 4 7 19 10 4 -4 9 20 21 18 14 10 13 8 -2 -5 -9 -10 -13 -17 -5 -10 -2 -2 -3 -1 -20 -10
-20 -20 -20 -20 -20 -0 1 -4 -20 -11 -20 -12 -20 -11 -20 -5 12 5 -19 -4 9 0 -1 4 12 10 4 -3 1 3 6 4 0 6 5 -1 -8 6 0 -17 -2 -20 -20 -19
-20 -20 -20 -20 -20 -20 -13 -20 -7 -20 -20 -20 -20 -20 -3 -3 -5 -20 -3 -1 -3 -9 -8 1 -4 2 2 -12 4 6 -19 -13 -2 6 -20 -10 -20 5 -20 -20 -20 -20 -20 -20
-20 -20 -20 -20 -20 -20 -15 -20 -20 -20 -20 -20 -20 -20 -12 -20 -20 -13 -20 2 -9 -5 -7 -20 -20 -10 -20 -20 -17 -16 -20 -20 -3 1 -2 -14 -20 -20 -13 -13 -1 12 12 -5
-20 -20 -20 -20 -20 -7 -12 -14 -20 -14 -20 -20 -20 -17 -8 -10 -9 -3 -1 -20 2 -20 -20 -20 -20 -20 -16 -20 -20 -20 -20 -20 -2 1 2 -8 1 4 3 -2 8 15 17 13
-20 -20 -20 -20 -20 -20 -7 -1 -20 -20 -20 -20 -20 -19 -19 8 0 -19 -20 -20 -19 -4 -20 -17 -20 -20 -20 -20 -20 -20 -2 1 0 4 -2 4 0 4 4 8 8 5 9 9
-20 -20 -20 -20 -20 -12 -1 -7 -20 -5 1 -16 -20 -16 -12 -18 2 -20 -11 -5 -17 -8 4 -17 -20 -20 6 -2 3 1 5 7 3 4 3 5 2 -0 4 -3 -20 -20 -20 -20
-15 -0 -0 -2 -4 -9 -7 -20 -12 -2 -2 -12 -13 11 11 1 -18 -16 -7 -11 3 -12 7 9 13 7 6 5 6 7 7 3 6 6 5 2 2 -0 -11 -20 -20 -20 -20 -15
-20 -20 -5 6 4 -18 -5 -4 -16 -2 -6 1 -20 -4 5 8 5 -15 -20 -12 5 7 8 16 9 3 6 11 8 5 4 -3 -15 -6 -20 -3 -18 -20 -20 -20 -20 -12 -20 -20

GFSNGP_prec_radar_219.txt.gz
Reflectivity
14 3 -11 -14 1 5 -4 -2 3 20 17 18 3 5 9 -0 -18 2 -4 -14 -2 -2 -20 -20 5 3 15 16 14 -16 -4 11 11 10 14 13 6 -5 -9 -17 11 -2 19 11
-20 -20 -20 -20 -20 -20 -20 4 19 5 5 2 -4 -7 -16 -9 -20 -7 -3 5 -10 -18 -1 -5 -9 -15 -5 9 14 26 24 11 13 10 7 10 11 8 -17 -20 -13 16 26 27
-4 -5 -19 -20 -20 -20 -20 -19 -4 2 -4 7 6 -10 -6 4 -12 -11 9 4 -15 -20 -20 -13 1 -3 -11 4 6 11 9 -1 5 -5 -10 -2 5 9 6 -13 -20 -20 -5 22
4 -20 2 -20 -20 -20 -20 -20 -20 -20 -20 -20 -20 -16 -16 -20 -17 -18 6 -3 -20 -20 -20 -17 -16 -4 4 -5 -0 9 -20 -20 -13 -20 -8 -4 3 -12 -18 -20 -20 -20 -20 -20
12 6 -20 -20 2 -2 -20 -20 -20 -2 -20 -5 5 -19 -20 -20 -20 -20 -20 -20 -20 -20 -13 -14 -20 -14 -16 -7 6 0 -20 -20 -20 -20 -20 -1 -4 -17 -20 -19 -20 -20 -20 -20
10 14 9 2 -3 -20 -20 -20 -19 -20 -20 -20 -20 -20 4 -4 -20 -20 -20 -20 -20 -20 -20 -19 -16 -3 -14 -12 1 -5 -16 -20 -20 -20 -12 -3 6 -10 -16 -3 -18 -20 8 -10
15 13 13 9 11 -20 -16 19 -20 -20 -20 -20 -20 -20 -11 -17 -20 -20 -20 -20 -20 -20 -20 -20 -20 -16 -20 -16 -4 -3 -5 -7 -17 -19 -12 5 9 9 -2 4 6 9 7 7
10 19 20 -20 -20 -18 -4 4 -20 -20 -20 -20 -20 -20 -20 -20 -20 -20 -20 -20 -20 -20 -20 -20 -20 -20 -20 -20 -20 -20 -14 0 -5 -7 -9 -14 -12 8 7 3 4 4 -14 -20
20 25 20 6 -16 -20 -20 -20 -20 -20 -20 -20 -20 -20 -20 -20 -20 -20 -20 -20 -20 -20 -20 -20 -20 -20 -20 -20 -20 -20 -20 -19 -20 -20 -20 -19 -8 -11 -8 -17 -20 -20 -20 -20
9 8 1 -20 -20 -20 -20 -20 -20 -20 -20 -20 -20 -20 -20 -20 -20 -20 -20 -20 -20 -20 -20 -20 -20 -20 -20 -20 -20 -20 -20 -20 -20 -20 -17 -20 -20 -12 -2 7 -7 -20 -20 -19
15 1 -20 -20 -20 -20 -12 -20 -20 -20 -20 -20 -20 -20 -20 -2 -2 -20 -10 -20 -20 -20 -20 -20 -20 -20 -20 -20 -20 -20 -20 -20 -20 -20 -20 -20 -2 -11 3 18 7 3 13 17
19 -18 -13 -20 -20 -20 -20 -20 -20 -20 -20 -20 -18 -0 -20 -20 -12 -9 8 -18 -0 -1 -3 -20 -20 -20 -20 -20 -20 -20 -20 -20 -20 -20 -20 -7 -8 1 23 31 28 24 25 26
-20 -20 -20 -20 -20 -20 -20 -20 -20 -20 -20 -20 -20 0 -20 -7 -3 -1 -5 2 3 4 6 0 -9 -20 -20 -19 3 -19 4 -20 -20 -2 1 5 24 16 16 25 32 35 36 31
-20 -20 -14 -20 -20 -20 -20 -20 -20 -20 -20 -20 -6 -14 -20 -20 -2 3 -2 6 4 9 9 12 20 26 25 31 31 22 10 24 -2 5 15 24 28 35 33 23 26 24 34 37
-20 -20 -20 -20 -20 -20 -20 -20 -20 -20 -20 -14 -20 -14 -1 3 -0 5 12 5 19 26 27 24 15 21 21 31 34 19 17 22 22 20 28 37 35 38 38 31 22 15 14 17
-20 -20 -20 -20 -20 -20 -20 -20 -9 -20 -20 1 1 -2 2 6 3 24 20 18 16 17 25 22 13 26 26 31 31 28 30 27 27 34 39 38 37 31 27 22 10 10 18 17
-20 -20 -20 -20 -20 -20 -20 -20 -20 -3 -4 -2 -11 3 0 10 21 19 13 27 28 31 31 28 26 28 20 30 36 28 33 40 39 40 33 10 8 -16 -13 1 -2 -1 -6 -8
-20 -20 -20 -20 -20 -12 -20 -20 -12 -17 -20 -20 -10 -13 -3 -1 0 -2 15 25 24 26 29 33 31 33 34 34 36 38 39 33 29 24 14 6 8 -2 0 -2 -3 -1 1 -15
-20 -20 -20 -20 -20 -20 -20 -20 -12 -20 -20 -20 -20 -20 2 3 3 8 15 3 14 11 20 26 29 27 34 35 32 25 18 17 18 14 12 -1 1 -2 3 3 -2 1 -4 -5
-20 -20 -20 -20 -20 -8 -5 -16 -20 -20 -20 -20 -19 -20 -18 -17 3 -4 14 -5 1 6 5 17 12 19 7 -5 5 13 10 5 5 8 7 3 1 -11 -15 -2 -17 1 -19 -20
-20 -20 -20 -20 -20 -20 -0 -20 -20 -20 -20 -20 -20 -20 -9 -13 -14 -20 -18 -1 -8 -14 -1 -8 4 -0 15 20 17 11 6 1 -11 -5 -20 -14 6 5 -5 -18 -4 -20 -20 -19
-20 -20 -20 -20 -20 -20 -20 -20 -20 -20 -20 -20 -20 -20 -10 4 -7 -5 -20 1 2 -20 -20 -16 -13 -6 -6 -4 0 6 1 6 3 -10 -13 -20 -20 -9 -5 -15 -20 -14 -14 -20
-20 -20 -19 -13 -20 -20 -20 2 -20 -20 -20 -20 -20 -20 -14 3 -2 -1 2 -20 -4 -16 3 -9 -20 -20 -11 -7 -8 -6 -2 -9 2 3 2 -9 -7 -12 -14 -3 -11 -12 6 3
-20 -20 -20 -20 -18 -5 -20 -20 -20 -20 -20 -20 -19 -20 -20 8 9 -20 -18 -20 -20 -16 -10 -4 -9 -20 -20 -9 -9 -0 -1 -3 -3 -2 -5 7 -7 -7 -3 3 5 2 -17 -4
-8 -15 -16 -15 -18 -1 -11 -20 -20 -4 -17 -20 -20 -20 5 10 8 -6 -1 -16 -20 -0 2 -19 -20 -16 -1 3 -6 2 -1 -1 3 -2 5 -3 -1 2 -7 -20 -18 0 -4 -10
-20 -14 -3 -9 -8 -6 18 10 -3 -11 -20 -20 -20 -11 16 4 -16 -12 -20 -20 -9 -12 14 4 9 10 3 6 -3 6 2 -2 5 5 4 2 -10 -2 -14 -20 -20 -20 -20 -20
-20 -20 -4 -4 -13 6 15 20 13 10 -1 -20 -13 -20 -16 -0 11 -8 5 -19 5 10 10 14 19 -3 5 7 11 6 -3 -7 -1 -16 -18 -5 -13 -9 -20 -5 -20 -9 -20 -20

GFSNGP_prec_radar_222.txt.gz
Reflectivity
3 -11 -20 -17 13 -6 -13 -7 4 20 28 27 24 11 -7 7 4 -2 -20 -15 -20 -20 -18 9 9 6 1 -7 16 26 10 -18 -20 -20 -18 -19 -20 -20 -20 -20 -20 -18 6 18
-20 -17 -14 11 -5 -13 -13 -13 -1 2 -3 26 -10 12 3 -20 -20 3 -19 -20 -20 -20 -20 -6 -8 -18 -10 -3 -20 -20 2 27 26 24 -20 -20 -15 6 -18 -20 -20 -20 -20 -16
-20 -5 -19 -20 -20 -20 -20 -8 10 -14 -19 -16 1 -19 -14 -4 -16 -20 -20 -20 -20 -20 -20 -20 -16 -16 -20 -20 -16 -18 -20 -16 13 14 23 24 0 -20 -7 12 10 2 -2 -5
-13 -20 -6 -20 0 -20 -20 -20 -20 -18 -5 14 14 -13 -4 -20 -20 -20 -20 -20 -20 -20 -20 -20 -17 6 3 3 7 -0 2 -1 -16 8 4 17 5 7 14 -1 -1 7 -0 1
13 8 -20 -18 15 -11 -20 -4 -20 -20 -1 -20 -20 -20 -20 -6 -20 -20 -20 -20 -20 -20 -20 -5 1 -19 -2 6 -1 4 -7 -8 2 -8 -1 5 11 -10 10 4 10 10 11 -2
14 15 6 23 7 -9 -20 5 -20 -20 -20 -20 -20 -11 -20 -20 -20 -20 -20 -20 -20 -20 -20 -20 -14 4 -20 -2 -0 -9 -6 -13 0 -7 5 7 4 -5 6 16 -8 -2 -14 9
12 13 -4 4 -1 -18 -15 -18 -20 -20 -20 -20 -20 -20 -17 -20 -20 -20 -20 -20 -20 -20 -20 -20 -20 -20 -20 -20 -13 -19 -20 -20 -20 -13 -17 -5 1 -3 5 6 -11 -2 -6 -2
19 14 17 -20 -20 8 18 -17 -20 -20 -20 -20 -20 -20 -20 -20 -20 -20 -20 -20 -20 -20 -20 -20 -20 -20 -20 -20 -20 -20 -20 -20 -20 -20 -19 -19 -10 2 1 -4 -7 -6 -16 -14
-18 21 21 -20 19 8 -20 -20 -20 -20 -20 -20 -20 -20 -20 -20 -20 -20 -20 -20 -20 -20 -20 -20 -20 -20 -20 -20 -20 -20 -20 -20 -20 -20 -20 -2 -15 -8 -14 -15 -20 -20 -20 -15
15 5 28 -16 -20 -16 -18 -20 -20 -20 -20 -20 -20 -20 -20 -20 -20 -20 -20 -20 -20 -20 -20 -20 -20 -20 -20 -20 -20 -20 -20 -20 -20 -20 -5 -20 -10 -8 -16 -11 -3 -20 -20 -20
15 9 36 10 7 -20 -20 -20 -20 -20 -20 -20 -20 -20 -20 -20 -20 -20 -11 -17 0 -12 -20 -20 -20 -20 -20 -20 -20 -20 -20 -20 -20 -20 -20 -20 -20 -20 -13 -12 2 -18 -19 -17
10 16 -13 -12 -20 -20 -20 -20 -20 -20 -20 -20 -20 -20 -20 -20 -20 -20 -20 -20 -13 -17 -20 -20 -20 -20 -20 -20 -20 -20 -20 -20 -20 -20 -20 -20 -20 -20 9 9 13 5 6 12
-20 -20 -20 -20 -20 -20 -20 -20 -20 -20 -20 -20 -20 -20 -20 -20 -20 -17 -15 -19 -8 -15 -20 -20 4 6 -0 -20 -20 -20 -19 -20 -14 -20 -20 -20 -20 -20 -11 17 -12 -20 18 26
-20 -20 -20 -20 -20 -20 -20 -20 -20 -20 -20 -20 -20 -20 -20 9 -12 -2 3 4 -4 -6 -17 -10 -10 2 7 -9 7 14 -10 -3 7 -20 -20 -20 -20 -18 1 15 1 15 28 25
-20 -20 -20 -20 -20 -20 -20 -20 -20 -20 -20 -20 -17 -9 -1 -2 -1 -1 8 14 6 -5 -0 16 -9 5 21 3 28 27 28 20 26 0 -19 -8 -4 15 17 26 36 19 27 29
9 -20 -20 -20 -20 -20 -20 -20 -20 -20 -20 -5 -20 -20 -12 -2 12 24 22 15 6 1 21 5 -2 26 24 25 22 24 14 31 24 -12 6 11 22 17 28 30 26 16 16 19
-20 -20 -20 -20 -20 -20 -20 -20 -20 -7 -20 -20 -20 3 -20 -2 -15 -15 8 8 24 27 28 23 24 31 28 24 25 29 30 28 24 22 24 26 33 36 34 35 30 22 14 6
-20 -20 -20 -20 -20 -20 -20 -20 -20 -20 -20 -20 6 -4 -20 -20 -7 -5 -19 -3 -3 21 29 27 31 33 28 29 27 25 30 29 35 35 36 39 37 36 34 28 16 15 14 10
-20 -20 -20 -20 -20 -20 -20 -20 -20 -20 -10 5 -5 -20 -5 -2 -16 -17 -7 -19 -20 -15 5 28 28 30 32 36 32 29 30 31 32 33 33 32 33 31 28 18 14 13 9 6
-20 -20 -20 -20 -20 -20 -20 -20 -20 -20 -18 0 7 7 -11 -20 -20 -20 -20 -4 -17 -1 -18 18 16 31 31 35 33 29 30 31 28 29 27 22 13 4 -18 -3 -15 -20 -16 -12
-20 -20 -20 -20 -20 -20 -20 -20 -20 1 -20 -15 -19 -4 -14 -19 1 -19 -20 -8 -9 -20 -20 -17 -12 2 10 23 22 18 14 14 11 7 5 5 0 -15 -20 -19 -19 -20 -20 -20
-7 -20 -20 -20 -20 -20 -20 -20 -8 -20 -20 -20 -20 -15 -8 -20 -16 -6 -15 -20 -4 -20 -20 -20 -19 -19 -1 -1 11 10 9 8 4 0 -14 -19 -19 -20 -20 -10 -7 -11 1 -1
-20 -16 -4 -20 -20 -20 -4 -11 -20 -20 -20 -20 -10 -20 -20 -20 5 -3 -16 -20 -20 -20 -4 -20 -20 -15 12 -10 -1 7 1 -20 -20 -20 -20 -18 -20 -20 -17 -14 -17 -15 -20 -14
-3 1 -19 -18 -20 -1 -20 -20 7 -20 -20 -20 -20 -19 -20 -18 -18 1 -20 -9 -7 -20 -20 -20 -20 -20 -1 -5 -10 -8 -5 -8 -19 -20 -19 8 -20 -20 -20 -18 -14 -18 -17 -11
-7 -20 -20 -10 6 13 2 -20 14 12 5 15 5 -9 -20 19 30 -14 -20 -19 7 -9 -20 -20 -20 -1 -3 -2 -1 -9 -20 -18 -14 -20 -19 -8 -20 -20 -20 -20 -20 -20 -20 -20
-20 -20 -20 -20 -5 -20 -20 -9 1 21 26 -18 -20 -20 -20 -20 -9 -18 -7 3 -20 -15 2 -20 -20 -10 4 -4 -11 -15 -8 -13 -17 -20 -20 -20 -20 -20 -20 -20 -20 -11 -1 -2
-20 -20 -20 -20 -20 -20 -20 -13 -20 18 30 21 -4 -14 -15 -20 -20 -3 -9 -20 -20 -20 -20 -5 -18 11 -20 -16 -14 -19 -20 -20 -20 -20 -20 -20 -5 -4 -20 -20 1 11 5 -19